Terminal Aerodrome Forecast
Issued by NWS

Home | Current Version | Previous Version | Graphics & Text | Print | Product List | Glossary Off
Versions: 1 2 3 4 5 6 7 8 9 10 11 12 13 14 15 16

000
FTUS43 KDDC 231746
TAFGCK
TAF
KGCK 231746Z 2318/2418 10009KT P6SM OVC005
     FM232200 10010KT P6SM BKN015
     FM240300 11008KT 3SM BR OVC005
     FM240800 11008KT 3SM -FZRA OVC003
     FM241400 29008KT P6SM -DZ BKN003=

USA.gov is the U.S. government's official web portal to all federal, state and local government web resources and services.